Total_Precipitation_Accumulation
0.81 0.69 0.81 0.83 0.69 0.77 1.12 1.06 1.00 0.71 0.66 0.75 0.74 0.77 0.75 0.69 0.60 0.54 0.52 0.51 0.49 0.51 0.54 0.58 0.63 0.69 0.83 0.98 1.07 1.22 1.37 1.41 1.41 1.39 1.39 1.38 1.39 1.38 1.38 1.42 1.48 1.56 1.55 1.48
0.85 0.53 0.56 0.62 0.54 0.61 0.73 0.70 0.69 0.57 0.67 0.63 0.60 0.63 0.66 0.62 0.54 0.48 0.49 0.48 0.44 0.43 0.45 0.49 0.54 0.60 0.70 0.86 0.99 1.09 1.23 1.32 1.35 1.32 1.32 1.33 1.30 1.29 1.26 1.30 1.38 1.47 1.53 1.55
1.05 0.55 0.66 0.76 0.61 0.60 0.68 0.65 0.64 0.74 0.70 0.51 0.50 0.59 0.71 0.67 0.54 0.50 0.49 0.48 0.46 0.46 0.45 0.45 0.48 0.58 0.69 0.81 0.88 0.94 1.03 1.12 1.19 1.21 1.24 1.26 1.27 1.29 1.33 1.36 1.41 1.49 1.56 1.62
1.23 0.90 1.07 0.78 0.52 0.51 0.59 0.65 0.61 0.64 0.55 0.49 0.54 0.59 0.64 0.66 0.61 0.53 0.46 0.44 0.46 0.49 0.47 0.46 0.47 0.54 0.66 0.80 0.91 0.98 1.05 1.09 1.10 1.15 1.21 1.26 1.34 1.42 1.50 1.56 1.58 1.65 1.70 1.72
1.35 1.01 0.65 0.41 0.33 0.47 0.61 0.68 0.58 0.52 0.44 0.39 0.42 0.49 0.55 0.53 0.55 0.56 0.50 0.49 0.52 0.55 0.56 0.54 0.54 0.56 0.65 0.80 0.91 1.00 1.09 1.14 1.15 1.22 1.32 1.39 1.51 1.59 1.62 1.70 1.68 1.65 1.63 1.61
1.44 1.17 0.64 0.43 0.23 0.27 0.49 0.72 0.46 0.40 0.42 0.39 0.38 0.51 0.55 0.51 0.54 0.57 0.53 0.52 0.55 0.56 0.56 0.59 0.63 0.65 0.75 0.90 1.00 1.09 1.18 1.28 1.28 1.30 1.38 1.44 1.48 1.48 1.48 1.48 1.46 1.40 1.36 1.32
1.17 1.12 0.60 0.40 0.19 0.20 0.60 0.75 0.46 0.45 0.47 0.45 0.51 0.59 0.54 0.49 0.52 0.56 0.59 0.62 0.64 0.65 0.69 0.77 0.82 0.87 0.98 1.10 1.24 1.29 1.31 1.38 1.37 1.32 1.32 1.31 1.28 1.23 1.19 1.16 1.14 1.11 1.08 1.05
0.86 1.19 0.79 0.40 0.29 0.53 0.74 0.51 0.44 0.43 0.44 0.44 0.42 0.39 0.39 0.40 0.44 0.48 0.52 0.58 0.66 0.73 0.79 0.83 0.93 1.03 1.14 1.27 1.35 1.28 1.22 1.22 1.19 1.10 1.07 1.03 1.00 1.03 1.02 0.99 1.04 1.05 1.02 1.00
0.81 0.88 0.72 0.56 0.58 0.62 0.54 0.50 0.44 0.45 0.42 0.41 0.40 0.39 0.40 0.40 0.41 0.43 0.45 0.49 0.55 0.65 0.72 0.75 0.84 0.89 0.98 1.02 1.00 0.97 0.96 0.98 0.98 0.94 0.92 0.92 0.91 0.94 0.99 0.98 0.99 1.00 0.99 1.02
0.69 0.66 0.57 0.53 0.48 0.46 0.43 0.45 0.42 0.40 0.39 0.37 0.41 0.38 0.38 0.38 0.39 0.41 0.43 0.45 0.48 0.52 0.58 0.65 0.72 0.75 0.78 0.78 0.76 0.79 0.85 0.90 0.93 0.93 0.91 0.92 0.94 0.93 0.96 1.00 1.02 0.99 0.97 0.99
0.61 0.50 0.44 0.40 0.37 0.40 0.37 0.34 0.33 0.32 0.32 0.35 0.36 0.35 0.37 0.38 0.41 0.42 0.43 0.45 0.47 0.55 0.62 0.70 0.72 0.75 0.77 0.79 0.78 0.82 0.87 0.92 0.97 0.99 0.95 0.95 0.97 0.99 1.01 1.03 1.09 1.20 1.17 1.10
0.68 0.50 0.52 0.47 0.38 0.35 0.34 0.34 0.36 0.37 0.36 0.35 0.37 0.42 0.41 0.43 0.45 0.46 0.47 0.46 0.47 0.51 0.59 0.68 0.69 0.72 0.77 0.82 0.85 0.88 0.90 0.92 0.95 0.99 0.99 0.98 0.94 0.99 1.06 1.07 1.10 1.11 1.12 1.14
0.55 0.41 0.40 0.37 0.31 0.30 0.34 0.38 0.39 0.39 0.39 0.40 0.41 0.43 0.45 0.48 0.49 0.49 0.50 0.50 0.53 0.57 0.61 0.66 0.68 0.71 0.78 0.82 0.84 0.89 0.94 0.96 0.97 0.98 0.99 1.00 0.94 0.91 1.00 1.07 1.10 1.09 1.08 1.09
0.34 0.33 0.35 0.31 0.34 0.34 0.35 0.38 0.37 0.37 0.39 0.41 0.43 0.43 0.45 0.48 0.47 0.48 0.55 0.61 0.60 0.58 0.58 0.59 0.59 0.67 0.75 0.77 0.78 0.84 0.88 0.94 0.98 0.98 1.01 1.03 1.02 0.96 0.92 0.94 0.99 1.03 1.04 1.09
0.29 0.33 0.40 0.37 0.34 0.33 0.33 0.32 0.32 0.34 0.35 0.37 0.39 0.43 0.46 0.48 0.51 0.54 0.57 0.58 0.55 0.52 0.53 0.53 0.55 0.63 0.69 0.71 0.73 0.78 0.84 0.92 0.97 0.99 1.01 1.05 1.07 1.07 1.02 0.95 0.93 0.95 0.96 1.04
0.32 0.31 0.33 0.34 0.36 0.35 0.34 0.34 0.36 0.39 0.38 0.39 0.41 0.46 0.49 0.50 0.50 0.51 0.53 0.54 0.54 0.56 0.57 0.55 0.57 0.62 0.63 0.66 0.67 0.71 0.81 0.96 1.03 1.04 1.04 1.06 1.06 1.07 1.06 1.01 0.97 0.92 0.91 1.00
0.46 0.43 0.40 0.41 0.40 0.40 0.41 0.44 0.46 0.46 0.44 0.43 0.45 0.45 0.44 0.43 0.42 0.44 0.48 0.50 0.52 0.56 0.56 0.56 0.60 0.58 0.58 0.60 0.65 0.70 0.76 0.86 0.95 0.95 0.96 1.02 1.07 1.09 1.10 1.09 1.03 0.96 0.95 1.04
0.55 0.57 0.54 0.53 0.52 0.49 0.48 0.46 0.46 0.45 0.46 0.46 0.44 0.43 0.43 0.42 0.44 0.45 0.47 0.45 0.43 0.45 0.50 0.57 0.59 0.55 0.51 0.54 0.60 0.66 0.71 0.77 0.82 0.88 0.92 1.00 1.09 1.09 1.09 1.09 1.05 0.99 0.98 1.04
0.50 0.52 0.53 0.53 0.53 0.52 0.51 0.52 0.51 0.49 0.48 0.46 0.44 0.45 0.45 0.46 0.48 0.49 0.46 0.44 0.43 0.46 0.51 0.53 0.57 0.53 0.52 0.56 0.63 0.66 0.69 0.71 0.75 0.79 0.86 0.95 0.99 0.97 0.99 1.01 1.01 0.98 0.96 0.98
0.49 0.50 0.51 0.52 0.51 0.50 0.52 0.52 0.49 0.47 0.47 0.45 0.45 0.45 0.46 0.47 0.47 0.46 0.43 0.44 0.52 0.57 0.54 0.55 0.53 0.51 0.54 0.59 0.67 0.68 0.68 0.71 0.75 0.78 0.82 0.87 0.90 0.90 0.90 0.92 0.93 0.92 0.93 0.95
0.51 0.50 0.49 0.51 0.52 0.51 0.50 0.49 0.47 0.49 0.49 0.46 0.47 0.48 0.48 0.48 0.45 0.42 0.40 0.43 0.47 0.48 0.49 0.49 0.47 0.50 0.59 0.71 0.75 0.70 0.67 0.71 0.76 0.80 0.83 0.85 0.87 0.87 0.86 0.86 0.87 0.87 0.89 0.90
0.49 0.50 0.51 0.51 0.48 0.49 0.49 0.48 0.48 0.48 0.48 0.48 0.48 0.47 0.45 0.45 0.42 0.39 0.40 0.46 0.49 0.52 0.51 0.47 0.50 0.62 0.80 0.88 0.77 0.68 0.69 0.72 0.76 0.80 0.83 0.84 0.85 0.84 0.82 0.82 0.85 0.84 0.83 0.84
0.45 0.47 0.48 0.49 0.48 0.48 0.46 0.46 0.47 0.46 0.47 0.47 0.50 0.50 0.48 0.46 0.44 0.44 0.48 0.46 0.47 0.52 0.52 0.52 0.63 0.78 0.88 0.80 0.68 0.66 0.68 0.71 0.73 0.75 0.78 0.78 0.78 0.78 0.78 0.77 0.76 0.77 0.78 0.78
0.37 0.37 0.39 0.39 0.36 0.34 0.37 0.39 0.39 0.40 0.41 0.43 0.45 0.46 0.45 0.44 0.42 0.42 0.47 0.50 0.51 0.53 0.52 0.57 0.67 0.75 0.74 0.65 0.59 0.61 0.63 0.64 0.66 0.66 0.68 0.68 0.68 0.69 0.70 0.70 0.70 0.68 0.69 0.70
0.30 0.29 0.28 0.27 0.28 0.30 0.31 0.31 0.30 0.31 0.31 0.35 0.37 0.38 0.39 0.42 0.47 0.46 0.44 0.46 0.47 0.48 0.48 0.51 0.55 0.56 0.54 0.52 0.53 0.55 0.57 0.60 0.66 0.69 0.67 0.65 0.64 0.64 0.63 0.62 0.64 0.63 0.63 0.64
0.25 0.24 0.24 0.24 0.25 0.26 0.26 0.25 0.27 0.28 0.29 0.31 0.34 0.36 0.38 0.41 0.43 0.44 0.45 0.44 0.43 0.44 0.44 0.45 0.44 0.45 0.46 0.46 0.48 0.49 0.51 0.53 0.56 0.58 0.58 0.59 0.60 0.60 0.60 0.59 0.58 0.59 0.60 0.60
0.23 0.22 0.22 0.21 0.21 0.23 0.24 0.25 0.27 0.29 0.31 0.35 0.39 0.37 0.39 0.40 0.41 0.42 0.41 0.40 0.40 0.40 0.41 0.41 0.42 0.43 0.44 0.44 0.44 0.44 0.46 0.48 0.51 0.53 0.54 0.56 0.57 0.58 0.57 0.57 0.57 0.57 0.58 0.57